Location: Palomar Mountain Lodge
(33.3110°N, 116.8495°W)
Time: 00:10:11
(UTC-08:00)

Cosmos 1656 Rocket - Pass Details

Date: 19 May 2017
Orbit: 796 x 846 km, 71.1° (Epoch: 20 November)

Event Time Altitude Azimuth Distance (km) Brightness Sun altitude
Rises 21:41:46 0° 346° (NNW) 3,305 7.7 -21.2°
Reaches altitude 10° 21:44:17 10° 353° (N) 2,375 6.7 -21.6°
Maximum altitude 21:49:28 45° 66° (ENE) 1,086 4.1 -22.4°
Enters shadow 21:50:18 42° 91° (E) 1,140 4.0 -22.5°
